Alexandria Esle, LA

5:01 AM CDT on May 28, 2017 (GMT -0500)
Alexandria Esler Regional

Weather History for KESF - December, 2012

Change the Weather History Date:

Sunday, December 2, 2012

  Actual Average Record
Temperature  
Mean Temperature 68 °F -  
Max Temperature 80 °F 64 °F 80 °F (2012)
Min Temperature 55 °F 40 °F 21 °F (1960)
Cooling Degree Days 2    
Growing Degree Days 18 (Base 50)    
Moisture  
Dew Point 60 °F    
Average Humidity 82    
Maximum Humidity 97    
Minimum Humidity 50    
Precipitation  
Precipitation 0.00 in - - ()
Sea Level Pressure  
Sea Level Pressure 30.19 in    
Wind  
Wind Speed 3 mph (SSE)    
Max Wind Speed 9 mph    
Max Gust Speed -    
Visibility 7 miles    
Events Fog    
Averages and records for this station are not official NWS values.
T = Trace of Precipitation, MM = Missing Value Source: NWS Daily Summary

Daily Weather History Graph

Daily Weather History Graph

Search for Another Location

Airport or City:

Trip Planner

Search our weather history database for the weather conditions in past years. The results will help you decide how hot, cold, wet, or windy it might be!

Date:

Astronomy

Dec. 02, 2012 Rise Set
Actual Time 6:51 AM CST 5:05 PM CST
Civil Twilight 6:25 AM CST 5:32 PM CST
Nautical Twilight 5:55 AM CST 6:02 PM CST
Astronomical Twilight 5:25 AM CST 6:31 PM CST
Moon 8:47 PM CST (12/2) 9:46 AM CST (12/2)
Length of Visible Light 11h 07m
Length of Day
10h 14m
Waning Gibbous, 85% of the Moon is Illuminated
Dec 2
Waning Gibbous
Dec 6
Last Quarter
Dec 13
New
Dec 19
First Quarter
Dec 28
Full

Hourly Weather History & Observations

Time (CST) Temp. Heat Index Dew Point Humidity Pressure Visibility Wind Dir Wind Speed Gust Speed Precip Events Conditions
12:19 AM 55.4 °F - 53.6 °F 94% 30.17 in 7.0 mi Calm Calm - N/A   Partly Cloudy
12:36 AM 55.4 °F - 53.6 °F 94% 30.17 in 10.0 mi Calm Calm - N/A   Mostly Cloudy
12:53 AM 55.4 °F - 53.6 °F 94% 30.17 in 9.0 mi Calm Calm - N/A   Overcast
1:14 AM 55.4 °F - 53.6 °F 94% 30.17 in 10.0 mi Calm Calm - N/A   Overcast
1:53 AM 61.0 °F - 59.0 °F 93% 30.18 in 6.0 mi SW 3.5 mph - N/A   Overcast
2:29 AM 62.6 °F - 60.8 °F 94% 30.18 in 2.0 mi SSE 3.5 mph - N/A   Overcast
2:53 AM 62.1 °F - 60.1 °F 93% 30.18 in 1.0 mi SE 3.5 mph - N/A   Overcast
3:00 AM 62.6 °F - 60.8 °F 94% 30.18 in 0.5 mi Calm Calm - N/A Fog Fog
3:53 AM 62.1 °F - 61.0 °F 96% 30.19 in 0.5 mi Calm Calm - N/A Fog Fog
4:53 AM 62.1 °F - 61.0 °F 96% 30.19 in 0.5 mi Calm Calm - N/A Fog Fog
5:53 AM 63.0 °F - 61.0 °F 93% 30.20 in 1.0 mi South 3.5 mph - N/A   Mist
6:14 AM 62.6 °F - 60.8 °F 94% 30.21 in 3.0 mi SE 3.5 mph - N/A   Overcast
6:43 AM 62.6 °F - 60.8 °F 94% 30.22 in 2.5 mi SSE 4.6 mph - N/A   Overcast
6:53 AM 63.0 °F - 61.0 °F 93% 30.22 in 2.0 mi SE 3.5 mph - N/A   Overcast
7:03 AM 62.6 °F - 60.8 °F 94% 30.23 in 1.5 mi Calm Calm - N/A   Overcast
7:22 AM 62.6 °F - 60.8 °F 94% 30.23 in 2.5 mi SE 4.6 mph - N/A   Overcast
7:36 AM 62.6 °F - 60.8 °F 94% 30.23 in 3.0 mi SE 4.6 mph - N/A   Overcast
7:53 AM 63.0 °F - 62.1 °F 97% 30.23 in 5.0 mi SE 5.8 mph - N/A   Overcast
8:53 AM 64.9 °F - 62.1 °F 90% 30.24 in 10.0 mi South 6.9 mph - N/A   Overcast
9:10 AM 66.2 °F - 62.6 °F 88% 30.25 in 10.0 mi Calm Calm - N/A   Overcast
9:45 AM 69.8 °F - 62.6 °F 78% 30.25 in 10.0 mi South 5.8 mph - N/A   Mostly Cloudy
9:53 AM 71.1 °F - 63.0 °F 75% 30.25 in 10.0 mi SSE 6.9 mph - N/A   Scattered Clouds
10:29 AM 73.4 °F - 62.6 °F 69% 30.24 in 10.0 mi SSE 8.1 mph - N/A   Mostly Cloudy
10:50 AM 75.2 °F - 64.4 °F 69% 30.23 in 10.0 mi South 9.2 mph - N/A   Scattered Clouds
10:53 AM 75.9 °F - 63.0 °F 64% 30.23 in 10.0 mi South 9.2 mph - N/A   Partly Cloudy
11:53 AM 78.1 °F - 63.0 °F 60% 30.20 in 10.0 mi SW 8.1 mph - N/A   Scattered Clouds
12:53 PM 78.1 °F - 62.1 °F 58% 30.17 in 10.0 mi SW 6.9 mph - N/A   Mostly Cloudy
1:53 PM 80.1 °F 81.2 °F 62.1 °F 54% 30.14 in 10.0 mi Variable 5.8 mph - N/A   Scattered Clouds
2:53 PM 80.1 °F 80.9 °F 60.1 °F 50% 30.13 in 10.0 mi Variable 5.8 mph - N/A   Mostly Cloudy
3:53 PM 79.0 °F - 60.1 °F 52% 30.13 in 10.0 mi SSE 8.1 mph - N/A   Scattered Clouds
4:53 PM 75.0 °F - 59.0 °F 57% 30.13 in 10.0 mi SSE 3.5 mph - N/A   Clear
5:53 PM 69.1 °F - 59.0 °F 70% 30.14 in 10.0 mi Calm Calm - N/A   Clear
6:53 PM 66.9 °F - 59.0 °F 76% 30.15 in 10.0 mi South 3.5 mph - N/A   Clear
7:53 PM 66.0 °F - 59.0 °F 78% 30.16 in 10.0 mi Calm Calm - N/A   Clear
8:53 PM 66.9 °F - 60.1 °F 79% 30.16 in 10.0 mi SSW 3.5 mph - N/A   Clear
9:53 PM 66.0 °F - 61.0 °F 84% 30.16 in 10.0 mi Calm Calm - N/A   Clear
10:53 PM 64.0 °F - 61.0 °F 90% 30.17 in 10.0 mi Calm Calm - N/A   Clear
11:53 PM 62.1 °F - 59.0 °F 90% 30.17 in 8.0 mi Calm Calm - N/A   Clear